Observations for Trim Patrick St
| Time | AQI | Temp °C | Hum % | Pres Pa | CO μg/m³ | H₂S μg/m³ | NO μg/m³ | NO₂ μg/m³ | O₃ μg/m³ | SO₂ μg/m³ | PM1 μg/m³ | PM2.5 μg/m³ | PM10 μg/m³ |
|---|---|---|---|---|---|---|---|---|---|---|---|---|---|
| Saturday 8 August 2026 | |||||||||||||
| 15:51 | 2 | 31 | 34 | 69,271 | 0 | 9.57 | 0.79 | 11.93 | 89.87 | 17.07 | 2 | 8.21 | 9.03 |
| 15:50 | 2 | 31.1 | 34 | 69,267 | 0 | 16.01 | 0.77 | 16.93 | 99.74 | 17.56 | 2 | 7.42 | 8.16 |
| 15:49 | 2 | 31.2 | 34 | 69,264 | 0 | 9.23 | 0.8 | 13.86 | 104.37 | 16.68 | 2 | 8.22 | 9.04 |
| 15:47 | 2 | 31.4 | 34 | 69,292 | 0 | 11.5 | 0.76 | 14.19 | 113.57 | 17.95 | 2 | 7.45 | 8.2 |
| 15:46 | 2 | 31.5 | 33 | 69,264 | 0 | 4.56 | 0.79 | 12.95 | 101.71 | 17.07 | 2.86 | 8.28 | 9.11 |
| 15:45 | 2 | 31.6 | 33 | 69,262 | 0 | 4.12 | 0.8 | 12.1 | 103.42 | 17.9 | 2 | 7.49 | 8.24 |
| 15:44 | 2 | 31.8 | 32 | 69,288 | 0 | 0.69 | 0.8 | 11.71 | 95.27 | 17.56 | 2 | 8.32 | 9.16 |
| 15:43 | 2 | 31.9 | 33 | 69,318 | 0 | 0 | 0.78 | 11.61 | 96.7 | 17.84 | 2 | 8.3 | 9.13 |
| 15:42 | 2 | 32 | 32 | 69,326 | 0 | 0 | 0.76 | 10.77 | 89.56 | 17.94 | 2 | 7.53 | 8.28 |
| 15:41 | 2 | 32.1 | 32 | 69,336 | 0 | 0 | 0.76 | 10.45 | 88.4 | 18.29 | 2 | 8.32 | 9.16 |
| 15:40 | 2 | 32.2 | 32 | 69,349 | 0 | 0 | 0.74 | 11.56 | 110.74 | 18.17 | 2.86 | 8.32 | 9.16 |
| 15:39 | 2 | 32.3 | 32 | 69,336 | 0 | 0 | 0.72 | 10.66 | 80.34 | 17.91 | 2 | 8.34 | 9.17 |
| 15:38 | 2 | 32.4 | 32 | 69,349 | 0 | 0 | 0.67 | 11.47 | 76.99 | 18.14 | 2.86 | 9.14 | 10.05 |
| 15:37 | 2 | 32.5 | 32 | 69,369 | 0 | 0 | 0.64 | 10.9 | 84.84 | 17.91 | 2 | 7.56 | 8.31 |
| 15:36 | 2 | 32.6 | 32 | 69,393 | 0 | 0 | 0.62 | 8.51 | 70.94 | 17.05 | 2 | 8.37 | 9.21 |
| 15:35 | 2 | 32.8 | 31 | 69,399 | 0 | 0 | 0.59 | 12.18 | 105.88 | 18.52 | 2 | 7.59 | 8.35 |
| 15:34 | 2 | 32.9 | 31 | 69,395 | 0 | 0 | 0.57 | 13.42 | 93.21 | 17.67 | 2 | 7.61 | 8.37 |
| 15:33 | 2 | 33.1 | 31 | 69,416 | 0 | 0 | 0.53 | 11.79 | 97.91 | 18.23 | 2 | 7.6 | 8.36 |
| 15:32 | 2 | 33.3 | 31 | 69,422 | 0 | 0 | 0.51 | 11.65 | 87.64 | 16.98 | 2 | 8.43 | 9.28 |
| 15:31 | 2 | 33.4 | 30 | 69,424 | 0 | 0 | 0.49 | 7.75 | 68.58 | 18.49 | 2.86 | 9.27 | 10.2 |